Flag for Spain Weather past 2 weeks in Granada, Spain

Now
82 °F

Passing clouds.


Feels Like: 81 °F
Forecast: 60 / 102 °F
Wind: 5 mph from Southwest

Location: Granada / Aeropuerto

Current Time: Jul 2, 2015 at 11:49:26 PM

Latest Report: Jul 2, 2015 at 11:00 PM


Visibility: N/A

Pressure: 30.12 "Hg

Humidity: 35%

Dew point: 52 °F

Location of GranadaLocation

Historic Weather in Granada — Graph

°F

Granada temperature yesterday

Maximum temperature yesterday: 102 °F (at 4:00 PM)
Minimum temperature yesterday: 66 °F (at 8:00 AM)
Average temperature yesterday: 88 °F

Past Weeks' High & Low Weather Summary

 TemperatureHumidityPressure
High106 °F (Jun 28, 4:00 PM)82% (Jun 18, 6:00 AM)30.24 "Hg (Jun 18, 6:00 AM)
Low55 °F (Jun 18, 6:00 AM)9% (Jun 29, 6:00 PM)29.95 "Hg (Jul 1, 3:00 PM)
Average84 °F31%30.09 "Hg
* Reported Jun 17 10:00 PM — Jul 2 10:30 PM, Granada, Weather by CustomWeather, © 2015

Note: Actual official high and low records may vary slightly from our data, if they occured in-between our weather recording intervals... More about our weather records

Advertising

Granada weather history for previous 24 hours

 ConditionsComfort  
Time TempWeatherWind HumidityBarometerVisibility
10:30 PM
Thu, Jul 2
82 °FSunny.9 mph37%30.09 "Hg10 mi
10:00 PM86 °FPassing clouds.9 mph29%30.09 "HgN/A
9:30 PM90 °FPassing clouds.7 mph29%30.07 "HgN/A
9:00 PM93 °FSunny.8 mph23%30.07 "Hg10 mi
8:30 PM95 °FSunny.9 mph23%30.04 "Hg10 mi
8:00 PM95 °FPassing clouds.9 mph23%30.04 "HgN/A
7:30 PM97 °FPassing clouds.9 mph20%30.04 "HgN/A
7:00 PM99 °FPassing clouds.9 mph19%30.04 "HgN/A
6:30 PM99 °FPassing clouds.8 mph18%30.04 "HgN/A
6:00 PM99 °FPassing clouds.9 mph18%30.04 "HgN/A
5:30 PM99 °FPassing clouds.8 mph18%30.04 "HgN/A
5:00 PM97 °FPassing clouds.6 mph19%30.07 "HgN/A
4:30 PM97 °FSunny.5 mph19%30.07 "Hg10 mi
4:00 PM97 °FSunny.5 mph18%30.07 "Hg10 mi
3:30 PM97 °FPassing clouds.5 mph19%30.07 "HgN/A
3:00 PM95 °FSunny.2 mph20%30.07 "Hg10 mi
2:30 PM93 °FSunny.3 mph23%30.09 "Hg10 mi
2:00 PM91 °FSunny.5 mph24%30.09 "Hg10 mi
1:30 PM90 °FSunny.3 mph27%30.09 "Hg10 mi
1:00 PM90 °FSunny.1 mph27%30.09 "Hg10 mi
12:30 PM88 °FSunny.1 mph29%30.09 "Hg10 mi
12:00 PM84 °FSunny.2 mph33%30.09 "Hg10 mi
11:30 AM82 °FSunny.1 mph37%30.12 "Hg10 mi
11:00 AM79 °FSunny.2 mph42%30.12 "Hg10 mi
10:30 AM77 °FSunny.1 mph44%30.12 "Hg10 mi
10:00 AM77 °FSunny.2 mph42%30.12 "Hg10 mi
9:30 AM73 °FSunny.2 mph47%30.12 "Hg10 mi
8:30 AM72 °FPassing clouds.1 mph50%30.09 "HgN/A
7:30 AM72 °FPassing clouds.2 mph57%30.09 "HgN/A
7:00 AM70 °FPassing clouds.1 mph64%30.09 "HgN/A
6:30 AM72 °FPassing clouds.1 mph61%30.09 "HgN/A
6:00 AM72 °FPassing clouds.1 mph61%30.09 "HgN/A
11:00 PM
Wed, Jul 1
82 °FClear.5 mph35%30.04 "Hg10 mi
Weather by CustomWeather, © 2015

See weather overviewHow to use our weather pages